GW2440 Weather Reports


Display with metric or nautical units.
time (UTC)temp
F
wind
direction
speed
MPH
gust
MPH
rain 1hr
in
rain 24hr
in
rain mn
in
humidity
%
barometer
mb
20260510081155 73 211 0.0 0.0 0.00 0.00 0.00 99 1015.2
20260510080654 73 211 0.0 0.0 0.00 0.00 0.00 99 1015.2
20260510080152 73 211 0.0 0.0 0.00 0.00 0.00 99 1015.2
20260510075648 73 211 0.0 0.0 0.00 0.00 0.00 99 1015.5
20260510075146 73 211 0.0 0.0 0.00 0.00 0.00 99 1015.2
20260510074643 73 212 0.0 0.0 0.00 0.00 0.00 99 1015.2
20260510074138 73 212 0.0 0.0 0.00 0.00 0.00 99 1015.2
20260510073636 73 211 0.0 0.0 0.00 0.00 0.00 99 1015.5
20260510073132 73 209 0.0 0.0 0.00 0.00 0.00 99 1015.5
20260510072628 73 199 0.0 0.0 0.00 0.00 0.00 99 1015.5
20260510072124 73 199 0.0 0.0 0.00 0.00 0.00 99 1015.2
20260510071620 73 199 0.0 0.0 0.00 0.00 0.00 99 1015.5
20260510071118 73 202 0.0 0.0 0.00 0.00 0.00 99 1015.5
20260510070615 73 237 0.0 0.0 0.00 0.00 0.00 99 1015.8
20260510070112 73 237 0.0 0.0 0.00 0.00 0.00 99 1015.8
20260510065603 73 235 0.0 0.0 0.00 0.00 0.00 99 1015.8
20260510065059 73 227 0.0 0.0 0.00 0.00 0.00 99 1015.8
20260510064555 73 259 0.0 0.0 0.00 0.00 0.00 99 1015.5
20260510064052 73 217 0.0 0.0 0.00 0.00 0.00 99 1015.8
20260510063549 73 158 0.0 0.0 0.00 0.00 0.00 99 1015.8
20260510063046 73 156 0.0 0.0 0.00 0.00 0.00 99 1015.8
20260510062542 73 156 0.0 0.0 0.00 0.00 0.00 99 1016.2
20260510062037 73 156 0.0 0.0 0.00 0.00 0.00 99 1015.8
20260510061534 73 156 0.0 0.0 0.00 0.00 0.00 99 1016.2
20260510061031 73 156 0.0 0.0 0.00 0.00 0.00 99 1016.2
20260510060527 73 157 0.0 0.0 0.00 0.00 0.00 99 1015.8
20260510060023 73 127 0.0 0.0 0.00 0.00 0.00 99 1016.2
20260510055519 73 127 0.0 0.0 0.00 0.00 0.00 99 1016.2
20260510055018 73 127 0.0 0.0 0.00 0.00 0.00 99 1016.2
20260510054513 73 126 0.0 0.0 0.00 0.00 0.00 99 1016.2
20260510054009 73 126 0.0 0.0 0.00 0.00 0.00 99 1016.2
20260510053503 73 127 0.0 0.0 0.00 0.00 0.00 99 1016.2
20260510053001 74 139 0.0 0.0 0.00 0.00 0.00 99 1016.2
20260510052456 74 334 0.0 0.0 0.00 0.00 0.00 99 1016.2
20260510051953 74 208 0.0 0.0 0.00 0.00 0.00 99 1016.5
20260510051448 74 208 0.0 0.0 0.00 0.00 0.00 99 1016.5
20260510050945 74 131 0.0 0.0 0.00 0.00 0.00 99 1016.9
20260510050442 74 133 0.0 0.0 0.00 0.00 0.00 99 1016.9
20260510045939 74 220 0.0 0.0 0.00 0.00 0.00 99 1016.9
20260510045436 74 215 0.0 0.0 0.00 0.00 0.00 99 1016.9
20260510044933 74 215 0.0 0.0 0.00 0.00 0.00 98 1016.9
20260510044430 74 197 0.0 0.0 0.00 0.00 0.00 99 1016.9
20260510043927 74 191 0.0 0.0 0.00 0.00 0.00 98 1016.9
20260510043422 74 180 0.0 0.0 0.00 0.00 0.00 98 1016.9
20260510042921 74 105 0.0 0.0 0.00 0.00 0.00 98 1016.9
20260510042416 74 93 0.0 1.0 0.00 0.00 0.00 98 1016.9
20260510041912 74 128 0.0 0.0 0.00 0.00 0.00 98 1016.9
20260510041410 74 109 0.0 0.0 0.00 0.00 0.00 98 1016.9
20260510040907 75 108 0.0 0.0 0.00 0.00 0.00 97 1016.9
20260510040404 75 92 0.0 1.0 0.00 0.00 0.00 97 1016.9
20260510035859 75 119 0.0 0.0 0.00 0.00 0.00 97 1016.9
20260510035356 75 83 1.0 1.0 0.00 0.00 0.00 96 1016.9
20260510034851 75 86 1.0 1.0 0.00 0.00 0.00 96 1016.9
20260510034349 75 106 0.0 1.0 0.00 0.00 0.00 95 1016.9
20260510033845 75 117 0.0 0.0 0.00 0.00 0.00 95 1016.5
20260510033342 75 110 0.0 0.0 0.00 0.00 0.00 95 1016.9
20260510032839 75 138 0.0 0.0 0.00 0.00 0.00 95 1016.9
20260510032336 75 132 0.0 0.0 0.00 0.00 0.00 94 1016.9
20260510031831 75 101 0.0 0.0 0.00 0.00 0.00 94 1016.9
20260510031326 75 36 0.0 0.0 0.00 0.00 0.00 94 1016.9
20260510030821 75 11 0.0 0.0 0.00 0.00 0.00 93 1016.9
20260510030318 75 85 0.0 0.0 0.00 0.00 0.00 93 1016.5
20260510025815 75 90 0.0 0.0 0.00 0.00 0.00 93 1016.5
20260510025312 75 72 1.0 1.0 0.00 0.00 0.00 93 1016.9
20260510024809 76 54 0.0 0.0 0.00 0.00 0.00 93 1016.9
20260510024306 76 60 1.0 1.0 0.00 0.00 0.00 93 1016.9
20260510023802 76 78 1.0 1.0 0.00 0.00 0.00 93 1016.9
20260510023259 76 84 0.0 1.0 0.00 0.00 0.00 93 1016.9
20260510022756 76 79 1.0 1.0 0.00 0.00 0.00 92 1016.5
20260510022255 76 31 1.0 1.0 0.00 0.00 0.00 92 1016.9
20260510021754 76 40 2.0 2.0 0.00 0.00 0.00 91 1016.5
20260510021252 76 60 4.0 6.0 0.00 0.00 0.00 91 1016.5
20260510020743 77 89 2.0 3.0 0.00 0.00 0.00 91 1016.5
20260510020243 77 57 2.0 2.0 0.00 0.00 0.00 90 1016.9
20260510015739 77 62 2.0 3.0 0.00 0.00 0.00 90 1016.5
20260510015236 77 24 2.0 2.0 0.00 0.00 0.00 90 1016.5
20260510014730 77 55 2.0 2.0 0.00 0.00 0.00 90 1016.5
20260510014228 77 313 1.0 1.0 0.00 0.00 0.00 90 1016.5
20260510013724 77 37 2.0 2.0 0.00 0.00 0.00 90 1016.5
20260510013220 77 91 0.0 0.0 0.00 0.00 0.00 90 1016.5
20260510012719 77 23 2.0 2.0 0.00 0.00 0.00 90 1016.2
20260510012215 77 348 2.0 2.0 0.00 0.00 0.00 90 1016.5
20260510011709 77 108 1.0 1.0 0.00 0.00 0.00 90 1016.2
20260510011205 77 72 3.0 3.0 0.00 0.00 0.00 90 1016.2
20260510010702 77 338 3.0 3.0 0.00 0.00 0.00 90 1015.8
20260510010159 77 44 2.0 2.0 0.00 0.00 0.00 90 1015.8
20260510005655 77 29 5.0 6.0 0.00 0.00 0.00 91 1016.2
20260510005152 77 59 4.0 6.0 0.00 0.00 0.00 91 1015.5
20260510004650 77 48 2.0 2.0 0.00 0.00 0.00 92 1016.2
20260510004148 77 69 2.0 2.0 0.00 0.00 0.00 92 1015.5
20260510003645 77 3 4.0 6.0 0.00 0.00 0.00 92 1015.8
20260510003140 77 35 3.0 3.0 0.00 0.00 0.00 93 1015.5
20260510002640 77 50 4.0 5.0 0.00 0.00 0.00 93 1015.2
20260510002138 77 64 4.0 6.0 0.00 0.00 0.00 93 1015.5
20260510001634 77 69 3.0 5.0 0.00 0.00 0.00 93 1015.5
20260510001133 77 55 2.0 2.0 0.00 0.00 0.00 93 1015.5
20260510000633 77 48 5.0 6.0 0.00 0.00 0.00 93 1015.2
20260510000131 77 31 3.0 6.0 0.00 0.00 0.00 93 1015.5
20260509235627 78 44 2.0 2.0 0.00 0.00 0.00 92 1015.5
20260509235124 78 40 7.0 8.0 0.00 0.00 0.00 92 1015.2
20260509234620 78 25 4.0 5.0 0.00 0.00 0.00 92 1015.2
20260509234118 78 53 5.0 8.0 0.00 0.00 0.00 92 1015.2
20260509233615 78 94 3.0 3.0 0.00 0.00 0.00 92 1014.8
20260509233112 78 16 7.0 8.0 0.00 0.00 0.00 91 1015.2
20260509232608 78 35 3.0 5.0 0.00 0.00 0.00 89 1014.8
20260509232106 79 67 2.0 2.0 0.00 0.00 0.00 87 1014.8
20260509231602 78 37 5.0 7.0 0.00 0.00 0.00 86 1014.8
20260509231100 79 43 7.0 9.0 0.00 0.00 0.00 85 1014.5
20260509230556 79 27 4.0 6.0 0.00 0.00 0.00 84 1014.5
20260509230054 79 347 8.0 10.0 0.00 0.00 0.00 84 1014.5
20260509225549 79 84 6.0 9.0 0.00 0.00 0.00 83 1014.2
20260509225044 80 27 7.0 8.0 0.00 0.00 0.00 82 1014.2
20260509224540 80 19 4.0 6.0 0.00 0.00 0.00 82 1014.2
20260509224037 81 30 5.0 7.0 0.00 0.00 0.00 81 1014.2
20260509223534 81 359 6.0 9.0 0.00 0.00 0.00 80 1013.8
20260509223032 81 18 12.0 15.0 0.00 0.00 0.00 79 1014.2
20260509222528 82 17 12.0 13.0 0.00 0.00 0.00 78 1013.8
20260509222024 82 40 7.0 9.0 0.00 0.00 0.00 77 1013.8
20260509221520 82 4 4.0 6.0 0.00 0.00 0.00 77 1013.8
20260509221016 83 347 8.0 9.0 0.00 0.00 0.00 76 1013.8
20260509220512 83 36 3.0 5.0 0.00 0.00 0.00 75 1013.5
20260509220009 83 9 6.0 7.0 0.00 0.00 0.00 74 1013.5
20260509215504 83 339 8.0 11.0 0.00 0.00 0.00 74 1013.5
20260509215001 83 32 4.0 6.0 0.00 0.00 0.00 74 1013.5
20260509214458 84 334 5.0 8.0 0.00 0.00 0.00 72 1013.5
20260509213955 84 339 5.0 7.0 0.00 0.00 0.00 72 1013.5
20260509213451 84 19 3.0 5.0 0.00 0.00 0.00 72 1013.1
20260509212948 85 291 6.0 8.0 0.00 0.00 0.00 70 1013.5
20260509212446 85 32 7.0 8.0 0.00 0.00 0.00 70 1013.1
20260509211942 86 36 5.0 9.0 0.00 0.00 0.00 69 1013.1
20260509211437 87 210 5.0 8.0 0.00 0.00 0.00 67 1013.5
20260509210934 87 332 8.0 11.0 0.00 0.00 0.00 66 1013.5
20260509210431 87 306 9.0 13.0 0.00 0.00 0.00 65 1013.1
20260509205927 90 335 6.0 8.0 0.00 0.00 0.00 60 1013.5
20260509205421 90 340 3.0 3.0 0.00 0.00 0.00 58 1012.8
20260509204917 90 18 2.0 2.0 0.00 0.00 0.00 60 1012.8
20260509204414 89 218 1.0 1.0 0.00 0.00 0.00 60 1012.8
20260509203911 89 46 1.0 2.0 0.00 0.00 0.00 61 1012.8
20260509203407 89 284 1.0 1.0 0.00 0.00 0.00 62 1012.5
20260509202904 88 222 0.0 1.0 0.00 0.00 0.00 64 1012.5
20260509202400 88 207 1.0 1.0 0.00 0.00 0.00 65 1012.8
20260509201855 87 278 5.0 6.0 0.00 0.00 0.00 66 1012.8
20260509201350 87 292 6.0 7.0 0.00 0.00 0.00 66 1012.8
20260509200848 90 235 7.0 10.0 0.00 0.00 0.00 60 1012.8
20260509200342 91 242 5.0 7.0 0.00 0.00 0.00 52 1012.8
20260509195840 91 248 2.0 2.0 0.00 0.00 0.00 52 1012.8
20260509195340 92 258 7.0 9.0 0.00 0.00 0.00 52 1012.5
20260509194839 92 256 3.0 5.0 0.00 0.00 0.00 51 1012.8
20260509194336 92 225 3.0 3.0 0.00 0.00 0.00 51 1013.1
20260509193832 92 244 5.0 6.0 0.00 0.00 0.00 51 1012.8
20260509193327 92 258 3.0 5.0 0.00 0.00 0.00 51 1012.8
20260509192823 93 204 3.0 3.0 0.00 0.00 0.00 50 1013.1
20260509192319 92 232 2.0 2.0 0.00 0.00 0.00 50 1013.1
20260509191815 92 225 6.0 7.0 0.00 0.00 0.00 51 1013.1
20260509191311 92 179 4.0 5.0 0.00 0.00 0.00 51 1013.5
20260509190806 92 155 4.0 5.0 0.00 0.00 0.00 51 1013.5
20260509190304 93 248 5.0 7.0 0.00 0.00 0.00 51 1013.5
20260509185801 93 201 6.0 7.0 0.00 0.00 0.00 51 1013.5
20260509185257 93 232 2.0 3.0 0.00 0.00 0.00 52 1013.5
20260509184755 93 311 2.0 3.0 0.00 0.00 0.00 55 1013.8
20260509184252 92 206 1.0 2.0 0.00 0.00 0.00 54 1014.2
20260509183748 93 223 6.0 7.0 0.00 0.00 0.00 55 1013.8
20260509183244 92 239 4.0 5.0 0.00 0.00 0.00 53 1014.2
20260509182739 92 181 3.0 3.0 0.00 0.00 0.00 55 1013.8
20260509182237 91 199 6.0 7.0 0.00 0.00 0.00 55 1014.2
20260509181734 92 211 5.0 6.0 0.00 0.00 0.00 55 1013.8
20260509181232 92 268 7.0 8.0 0.00 0.00 0.00 55 1014.2
20260509180729 91 248 5.0 7.0 0.00 0.00 0.00 54 1014.2
20260509180225 91 241 7.0 9.0 0.00 0.00 0.00 57 1014.5
20260509175721 92 185 6.0 7.0 0.00 0.00 0.00 54 1014.5
20260509175218 91 195 4.0 5.0 0.00 0.00 0.00 55 1014.5
20260509174714 91 249 9.0 13.0 0.00 0.00 0.00 54 1014.5
20260509174209 92 200 4.0 5.0 0.00 0.00 0.00 56 1014.5
20260509173706 91 249 8.0 9.0 0.00 0.00 0.00 56 1014.8
20260509173201 91 238 6.0 7.0 0.00 0.00 0.00 57 1014.5
20260509172658 90 235 6.0 6.0 0.00 0.00 0.00 59 1014.5
20260509172154 90 132 2.0 2.0 0.00 0.00 0.00 58 1014.8
20260509171650 90 200 5.0 6.0 0.00 0.00 0.00 59 1014.5
20260509171146 90 154 5.0 7.0 0.00 0.00 0.00 59 1014.5
20260509170643 89 221 5.0 6.0 0.00 0.00 0.00 60 1014.5
20260509170139 89 214 1.0 1.0 0.00 0.00 0.00 60 1014.5
20260509165637 89 217 7.0 9.0 0.00 0.00 0.00 59 1014.8
20260509165133 89 177 6.0 7.0 0.00 0.00 0.00 61 1014.8
20260509164629 89 211 10.0 11.0 0.00 0.00 0.00 59 1014.8
20260509164125 89 226 7.0 9.0 0.00 0.00 0.00 58 1014.8
20260509163623 89 141 5.0 5.0 0.00 0.00 0.00 60 1014.8
20260509163118 88 222 5.0 6.0 0.00 0.00 0.00 61 1015.2
20260509162616 89 211 3.0 3.0 0.00 0.00 0.00 62 1014.8
20260509162112 87 250 2.0 3.0 0.00 0.00 0.00 62 1014.8
20260509161608 88 195 5.0 7.0 0.00 0.00 0.00 62 1015.2
20260509161109 88 194 6.0 7.0 0.00 0.00 0.00 64 1014.8
20260509160605 88 143 5.0 7.0 0.00 0.00 0.00 64 1015.2
20260509160100 88 196 2.0 3.0 0.00 0.00 0.00 65 1015.2
20260509155557 87 171 1.0 1.0 0.00 0.00 0.00 69 1015.2
20260509155053 87 139 1.0 2.0 0.00 0.00 0.00 71 1015.2
20260509154549 86 202 4.0 5.0 0.00 0.00 0.00 71 1015.2
20260509154047 86 141 3.0 5.0 0.00 0.00 0.00 71 1015.2
20260509153543 86 215 3.0 3.0 0.00 0.00 0.00 71 1015.5
20260509153040 86 167 4.0 6.0 0.00 0.00 0.00 73 1015.5
20260509152536 85 175 1.0 1.0 0.00 0.00 0.00 75 1015.5
20260509152034 84 204 5.0 6.0 0.00 0.00 0.00 76 1015.5
20260509151530 84 220 3.0 3.0 0.00 0.00 0.00 76 1015.5
20260509151028 84 186 2.0 5.0 0.00 0.00 0.00 77 1015.5
20260509150525 84 208 4.0 5.0 0.00 0.00 0.00 78 1015.8
20260509150023 83 198 1.0 2.0 0.00 0.00 0.00 78 1015.5
20260509145518 83 145 2.0 3.0 0.00 0.00 0.00 80 1015.8
20260509145013 82 233 2.0 2.0 0.00 0.00 0.00 83 1015.5
20260509144511 82 206 1.0 2.0 0.00 0.00 0.00 83 1015.8
20260509144008 82 59 3.0 5.0 0.00 0.00 0.00 83 1015.5
20260509143505 82 182 4.0 5.0 0.00 0.00 0.00 83 1015.5
20260509143003 82 199 3.0 3.0 0.00 0.00 0.00 83 1015.5
20260509142458 82 208 3.0 3.0 0.00 0.00 0.00 83 1015.5
20260509141953 81 152 1.0 1.0 0.00 0.00 0.00 87 1015.5
20260509141450 80 167 0.0 0.0 0.00 0.00 0.00 87 1015.2
20260509140947 80 156 3.0 3.0 0.00 0.00 0.00 89 1015.5
20260509140443 79 135 1.0 2.0 0.00 0.00 0.00 89 1015.5
20260509135942 79 174 3.0 5.0 0.00 0.00 0.00 90 1015.5
20260509135439 79 183 0.0 1.0 0.00 0.00 0.00 89 1015.5
20260509134936 79 143 1.0 1.0 0.00 0.00 0.00 90 1015.5
20260509134434 78 180 1.0 1.0 0.00 0.00 0.00 92 1015.5
20260509133931 78 232 3.0 3.0 0.00 0.00 0.00 92 1015.5
20260509133427 77 181 1.0 1.0 0.00 0.00 0.00 93 1015.5
20260509132926 76 199 1.0 2.0 0.00 0.00 0.00 95 1015.5
20260509132423 75 203 4.0 6.0 0.00 0.00 0.00 98 1015.5
20260509131920 75 54 1.0 2.0 0.00 0.00 0.00 99 1015.5
20260509131417 74 141 3.0 3.0 0.00 0.00 0.00 99 1015.5
20260509130914 74 173 3.0 3.0 0.00 0.00 0.00 99 1015.5
20260509130409 74 189 1.0 2.0 0.00 0.00 0.00 99 1015.5
20260509125906 73 219 3.0 3.0 0.00 0.00 0.00 99 1015.5
20260509125403 73 151 0.0 0.0 0.00 0.00 0.00 99 1015.8
20260509124859 73 172 0.0 1.0 0.00 0.00 0.00 99 1015.5
20260509124356 73 182 3.0 3.0 0.00 0.00 0.00 99 1015.2
20260509123854 73 183 1.0 2.0 0.00 0.00 0.00 99 1015.5
20260509123351 73 195 0.0 0.0 0.00 0.00 0.00 99 1015.5
20260509122847 73 194 0.0 0.0 0.00 0.00 0.00 99 1015.5
20260509122344 73 170 0.0 0.0 0.00 0.00 0.00 99 1015.5
20260509121841 73 154 0.0 0.0 0.00 0.00 0.00 99 1015.2
20260509121338 73 99 0.0 1.0 0.00 0.00 0.00 99 1015.2
20260509120836 73 103 0.0 0.0 0.00 0.00 0.00 99 1015.5
20260509120333 73 64 1.0 2.0 0.00 0.00 0.00 99 1015.2
20260509115831 72 18 0.0 0.0 0.00 0.00 0.00 99 1015.2
20260509115328 72 54 0.0 0.0 0.00 0.00 0.00 99 1015.2
20260509114826 72 32 0.0 0.0 0.00 0.00 0.00 99 1015.2
20260509114324 72 22 0.0 1.0 0.00 0.00 0.00 99 1014.8
20260509113824 72 237 1.0 1.0 0.00 0.00 0.00 99 1014.8
20260509113320 72 66 2.0 2.0 0.00 0.00 0.00 99 1014.8
20260509112817 72 46 0.0 0.0 0.00 0.00 0.00 99 1014.8
20260509112314 72 76 0.0 0.0 0.00 0.00 0.00 99 1014.8
20260509111811 72 94 0.0 0.0 0.00 0.00 0.00 99 1014.8
20260509111308 72 101 0.0 0.0 0.00 0.00 0.00 99 1015.2
20260509110805 72 95 1.0 1.0 0.00 0.00 0.00 99 1015.2
20260509110301 72 148 0.0 0.0 0.00 0.00 0.00 99 1014.8
20260509105800 72 56 0.0 1.0 0.00 0.00 0.00 99 1014.5
20260509105257 72 87 0.0 1.0 0.00 0.00 0.00 99 1014.5
20260509104754 72 151 0.0 0.0 0.00 0.00 0.00 99 1014.5
20260509104250 72 64 2.0 2.0 0.00 0.00 0.00 99 1014.5
20260509103749 72 23 1.0 1.0 0.00 0.00 0.00 99 1014.8
20260509103246 72 85 0.0 0.0 0.00 0.00 0.00 99 1014.5
20260509102744 72 100 0.0 0.0 0.00 0.00 0.00 99 1014.5
20260509102241 72 117 0.0 0.0 0.00 0.00 0.00 99 1014.8
20260509101737 72 73 0.0 0.0 0.00 0.00 0.00 99 1014.5
20260509101233 72 45 0.0 0.0 0.00 0.00 0.00 99 1014.5
20260509100731 72 64 1.0 2.0 0.00 0.00 0.00 99 1014.2
20260509100228 72 77 1.0 2.0 0.00 0.00 0.00 99 1014.2
20260509095724 72 47 1.0 1.0 0.00 0.00 0.00 99 1014.5
20260509095222 72 52 0.0 0.0 0.00 0.00 0.00 99 1014.5
20260509094719 72 65 0.0 0.0 0.00 0.00 0.00 99 1014.2
20260509094216 72 76 0.0 0.0 0.00 0.00 0.00 99 1014.5
20260509093714 71 67 1.0 2.0 0.00 0.00 0.00 99 1014.5
20260509093211 72 96 0.0 0.0 0.00 0.00 0.00 99 1014.5
20260509092709 72 84 0.0 1.0 0.00 0.00 0.00 99 1014.5
20260509092207 72 80 1.0 1.0 0.00 0.00 0.00 99 1014.5
20260509091705 72 49 0.0 0.0 0.00 0.00 0.00 99 1014.5
20260509091200 72 185 0.0 0.0 0.00 0.00 0.00 99 1014.5
20260509090658 71 136 0.0 0.0 0.00 0.00 0.00 99 1014.5
20260509090155 72 198 0.0 0.0 0.00 0.00 0.00 99 1014.8
20260509085653 71 160 0.0 0.0 0.00 0.00 0.00 99 1014.8
20260509085149 71 213 0.0 0.0 0.00 0.00 0.00 99 1015.2
20260509084646 71 14 0.0 0.0 0.00 0.00 0.00 99 1014.5
20260509084143 71 63 1.0 1.0 0.00 0.00 0.00 99 1014.8
20260509083641 71 340 2.0 2.0 0.00 0.00 0.00 99 1014.8
20260509083137 71 336 1.0 2.0 0.00 0.00 0.00 99 1014.5
20260509082634 71 264 1.0 1.0 0.00 0.00 0.00 99 1014.8
20260509082131 71 118 0.0 0.0 0.00 0.00 0.00 99 1014.8
20260509081628 71 243 0.0 0.0 0.00 0.00 0.00 99 1014.8